COSMOS 2491 DEB, 47111

Orbit data source: Space-Track

COSMOS 2491 DEB, 47111 is space debris in LEO originally from a launch on Wed, 25 Dec 2013 UTC launched from the Plesetsk Missile And Space Complex (PKMTR). Debris objects in space refer to the collection of defunct objects orbiting the Earth. Examples of debris include non-operational satellites, rocket bodies, and fragments generated from explosions, collisions, or faulty payload assembly.

Loading next visibility...
Identifier
47111, 2013-076AG
Orbit
LEO
Country
Flag of CISCIS
Related business
Manufacturer
TsNIIKhM
Mission
Spacecraft
Bus & Motor
Unknown
Mass
Unknown
Launch date (UTC)
2013-12-25 (12 years ago)
Launch vehicle
Unknown
Launch site
Plesetsk Missile And Space Complex (PKMTR)
Object type
Payload
Rocket body
Debris
Shape & HBR
Unknown shape, 0.1 m
Radar Cross Section
Small (<0.1 m²)

Expand to show TLE details & history
Last TLE update: 1 week ago

TLE from 1 week ago
0 COSMOS 2491 DEB
1 47111U 13076AG  25346.47322630  .00004252  00000-0  24424-1 0  9998
2 47111  82.4379 260.7667 0113883 319.5260  39.7397 12.58257099115769
Epoch: 2025-12-12T11:21Z
TLE epoch observation values (Epoch: 2025-12-12T11:21:26.752Z)
Latitude
-0.0001°
Longitude
8.99087°
Altitude
1,364.897 km
Speed
7.207 km/s
True Right ascension
17h 23m 04s
True Declination
0° 00' 00"
Sunlit
Object was in daylight at epoch
Visualization orbit readout
Latitude
Unknown
Longitude
Unknown
Altitude
Unknown
Speed
Unknown
Apparent Right ascension
Unknown
Apparent Declination
Unknown
Sunlit
N/A
Visualization observer readout
Local Sidereal Time
19:00:31
Azimuth
Unknown
Elevation
Unknown
Doppler factor
Unknown
Orbital elements
Apogee altitude
1,516.371 km
Perigee altitude
1,338.585 km
Semi-major axis
7,805.615 km
Eccentricity
0.01139
Inclination
82.4379°
RAAN
260.7667°
Arg. of periapsis
319.526°
True anomaly
40.58319°
Mean anomaly
39.7397°
Eccentric anomaly
40.16052°
Mean motion
3.14726 °/min
Orbital period
114.39 mins
BSTAR
0.024424
Loading maneuver chart data...
Computing Atmospheric mass density...
Loading historical data...
Loading historical data...
Loading historical data...
Loading historical data...
Loading historical data...
Loading historical data...
Loading historical data...

Documentation

Showing up to 5 results
|